Regional Weather Roundup
Issued by NWS Newport/Morehead, NC

Current Version | Previous Version | Text Only | Print | Product List | Glossary On
Versions: 1 2 3 4 5 6 7 8 9 10 11 12 13 14 15 16 17 18 19 20 21 22 23 24 25 26 27 28 29 30 31 32 33 34 35 36 37 38 39 40 41 42 43 44 45 46 47 48 49 50
000 ASUS42 KMHX 310110 RWRMHX WEATHER ROUNDUP FOR EASTERN NORTH CAROLINA NATIONAL WEATHER SERVICE NEWPORT/MOREHEAD CITY NC 800 PM EST FRI JAN 30 2015 NOTE: "FAIR" INDICATES FEW OR NO CLOUDS BELOW 12,000 FEET WITH NO SIGNIFICANT WEATHER AND/OR OBSTRUCTIONS TO VISIBILITY NCZ015>017-031-032-045>047-102-103-310200- NORTH COAST CITY SKY/WX TMP DP RH WIND PRES REMARKS EDENTON PTCLDY 38 20 49 N14G21 30.15R ELIZABETH CITY PTCLDY 36 15 42 NW26G33 30.14R KITTY HAWK MOCLDY 38 21 51 NW10G20 30.10R MANTEO MOCLDY 37 19 48 NW16G24 30.12R $$ NCZ045>047-081-094-103-104-310200- CENTRAL COAST CITY SKY/WX TMP DP RH WIND PRES REMARKS FRISCO MOCLDY 40 32 73 VRB5 30.10R SWANQUARTER N/A 41 N/A N/A NW14 30.06 $$ NCZ095-097-098-100-101-310200- SOUTHERN COAST CITY SKY/WX TMP DP RH WIND PRES REMARKS BEAUFORT CLEAR 43 21 41 NW24G30 30.14R CEDAR ISLAND N/A 45 N/A N/A W15G24 30.12 JACKSONVILLE CLEAR 41 18 39 NW10 30.17R PINEY ISLAND N/A N/A N/A N/A MISG 30.13R WILMINGTON CLEAR 43 19 38 NW14 30.19R $$ NCZ011>013-027>030-043-044-078>080-089-090>093-098-310200- COASTAL PLAIN CITY SKY/WX TMP DP RH WIND PRES REMARKS AHOSKIE CLEAR 35 9 33 N10 30.19R CLINTON CLEAR 42 19 40 N6 30.22R ELIZABETHTOWN CLEAR 43 16 34 NW7 30.22R GOLDSBORO CLEAR 48 18 29 NW14G23 30.09R GREENVILLE CLEAR 37 14 38 N12G18 30.19S HAVELOCK CLEAR 43 13 29 NW18 30.16R KENANSVILLE CLEAR 41 14 34 NW6 30.20R KINSTON CLEAR 39 12 33 NW14G25 30.19 NEW BERN CLEAR 43 14 31 NW12G23 30.17R RICHLANDS CLEAR 41 16 36 NW7 30.18R ROCKY MOUNT CLEAR 37 12 35 NW12G21 30.21R WASHINGTON CLEAR 39 14 36 NW9G16 30.17R WHITEVILLE CLEAR 43 19 37 W3 30.22R $$ AMZ130-135-150-152-154-156-158-170-250-252-270-ANZ085-086-088-633-658-670-310200- MARINE OBSERVATIONS STATION/POSITION TIME TEMP WIND PRES WAVE SWELL AIR SEA DIR/SP/G HT/PER HT/PER (UTC) (F) (DEG/KT/KT) (MB) (FT/S) (FT/S) CHESAPEAKE LIGHT 0000 37 320/ 38/ 41 1019.1 64 E VA BEACH 0100 39 49 320/ 31/ 37 1016.9 11/ 7 DUCK 0100 39 44 320/ 26/ 31 1018.4 2 E DUCK 0100 43 N/A 5/ 6 10 NE DUCK 0100 45 N/A 8/ 6 OREGON INLET 0100 39 42 320/ 13/ 18 1019.4 13E OREGON INLT 0100 43 N/A 6/ 7 2/11 HATTERAS CG 0100 41 46 10/ 12/ 16 1019.5 DIAMOND BUOY 0100 45 66 350/ 16/ 19 1018.6 5/ 6 3/ 7 17 S OCRACOKE NOT AVBL CAPE LOOKOUT 0000 46 300/ 17/ 20 1019.7 BEAUFORT LAB 0100 44 47 330/ 12/ 22 1019.6 27 SE WRIGHTSVLE NOT AVBL 5 SE WRIGHTSVLE 0000 48 52 320/ 16/ 17 1021.1 225 S CAPE HAT 0016 59 71 320/ 25/ 31 1017.6 11/ 9 41 SE CHARLESTON 0100 55 68 330/ 21/ 27 1022.2 6/ 5 2/11 $$

USA.gov is the U.S. government's official web portal to all federal, state and local government web resources and services.